Tracking 29747 objects as of 9-Oct-2024
HD Live streaming from Space Station
objects crossing your sky now

COSMOS 823

Track COSMOS 823 now!
10-day predictions
COSMOS 823 is classified as:


NORAD ID: 8873
Int'l Code: 1976-051A
Perigee: 976.9 km
Apogee: 1,011.7 km
Inclination: 83.0 °
Period: 104.8 minutes
Semi major axis: 7365 km
RCS: 1.7893 m2 (large)
Launch date: June 2, 1976
Source: Commonwealth of Independent States (former USSR) (CIS)
Launch site: PLESETSK MISSILE AND SPACE COMPLEX (PKMTR)
Your satellite tracking list
Your tracking list is empty




NASA's NSSDC Master Catalog

Two Line Element Set (TLE):
1 08873U 76051A   24283.40352556  .00000223  00000-0  22341-3 0  9996
2 08873  82.9666 229.7921 0023620 127.5960 354.2355 13.73456254422612
Source of the keplerian elements: AFSPC